[[{"header":{"parameterUnit":"m.s-1","parameterCategory":1,"la1":30.2991,"la2":30.254,"lo1":-89.0895,"lo2":-89.0444,"dy":0.0017,"dx":0.0017,"nx":28,"ny":28,"refTime":"2024-02-26T03:00:00:Z","depth":0,"parameterNumber":2,"parameterNumberName":"U-component_of_WINDS"},"data":[0,0,0,0,0,0,0,0,0,0,0,0,0,0,0,0,0,0,0,0,0,0,0,0,0,0,0,0,0,0,0,0,0,0,0,0,0,0,0,0,0,0,0,0,0,0,0,0,0,0,0,0,0,0,0,0,0,0,2.3487,2.3487,0,2.3457,2.3456,2.3456,2.3393,2.3392,2.339,2.3389,2.336,2.336,2.336,0,0,0,0,0,0,0,0,0,0,0,0,0,2.3493,2.3493,2.3487,2.3487,2.3487,2.3457,2.3456,2.3456,2.3393,2.3391,2.339,2.3388,2.336,2.336,2.3361,0,0,0,0,0,0,0,0,0,0,0,0,0,2.3479,2.3493,2.3487,2.3451,2.3448,2.3457,2.3456,2.3456,2.3393,2.3391,2.339,2.3388,2.3359,2.336,2.3361,2.3403,0,0,2.3362,2.3363,0,0,0,0,0,0,0,0,2.348,2.3479,2.3457,2.3454,2.345,2.3427,2.3448,2.3438,2.3394,2.3414,2.3389,2.3387,2.3384,2.3382,2.3381,2.3401,2.34,2.3362,2.3363,2.3363,2.3363,0,0,0,0,0,0,0,2.3481,2.348,2.3475,2.3457,2.3453,2.3438,2.3433,2.3445,2.341,2.3412,2.3408,2.3405,2.3381,2.338,2.3379,2.3399,2.3362,2.3363,2.3363,2.3364,2.3453,2.3455,0,0,0,0,0,0,2.3487,2.3481,2.3476,2.3474,2.3461,2.3439,2.3434,2.3436,2.341,2.3404,2.3406,2.3402,2.338,2.3379,2.3378,2.3425,2.3363,2.3364,2.3364,2.3451,2.3453,2.3455,0,0,0,0,0,0,2.3487,2.3487,2.3477,2.3477,2.3474,2.3441,2.3443,2.3437,2.3435,2.3405,2.3399,2.3412,2.3379,2.3377,2.3397,2.3423,2.3364,2.3365,2.3448,2.3452,2.3454,2.352,0,0,0,0,0,0,2.3488,2.3488,2.3503,2.3477,2.3474,2.3496,2.3445,2.3437,2.3436,2.343,2.3408,2.3403,2.3377,2.3396,2.3397,2.3423,2.3365,2.3446,2.345,2.3453,2.3515,2.3525,2.3533,0,0,0,0,0,2.3488,2.3523,2.3504,2.3504,2.3493,2.3498,2.3496,2.3465,2.3439,2.3454,2.3435,2.3404,2.342,2.3399,2.34,2.3426,2.3444,2.3449,2.3453,2.3511,2.3523,2.3533,0,0,0,0,0,0,2.3553,2.3519,2.3497,2.3525,2.3515,2.3487,2.3505,2.3478,2.3476,2.347,2.3432,2.3428,2.3452,2.3441,2.3418,2.3465,2.3427,2.3432,2.3471,2.3482,2.3491,2.3492,2.3365,0,0,0,0,0,2.357,2.3577,2.3547,2.3574,2.357,2.3539,2.354,2.3517,2.3505,2.35,2.3482,2.3473,2.3475,2.3478,2.3479,2.3513,2.3508,2.3532,2.3541,2.3548,2.3553,2.357,2.358,2.347,2.347,2.347,0,0,2.3606,2.3589,2.3595,2.3586,2.3576,2.3584,2.3535,2.3546,2.3552,2.3502,2.3519,2.3506,2.3492,2.3519,2.353,2.3511,2.3582,2.3554,2.356,2.356,2.3575,2.3586,2.3595,2.3473,2.3473,2.3472,0,0,2.3676,2.3663,2.3684,2.3674,2.3658,2.3638,2.3643,2.3619,2.3608,2.3625,2.3588,2.3594,2.36,2.3592,2.3589,2.3656,2.3627,2.3658,2.3704,2.3721,2.3729,2.3737,2.376,2.3769,2.3662,2.3663,2.3663,0,2.3722,2.3732,2.3698,2.3711,2.3708,2.3663,2.3684,2.3677,2.3663,2.3663,2.3641,2.3647,2.3635,2.3659,2.3676,2.3675,2.368,2.3659,2.3731,2.3738,2.3744,2.3766,2.3775,2.3666,2.3666,2.3665,2.3665,0,2.379,2.3798,2.3817,2.3803,2.3803,2.382,2.3789,2.3793,2.377,2.3752,2.3769,2.3754,2.375,2.3755,2.3733,2.3776,2.3764,2.3737,2.3699,2.3759,2.3779,2.3787,2.3672,2.367,2.3669,2.3668,0,0,2.3898,2.3866,2.3873,2.3867,2.3847,2.3852,2.3868,2.3864,2.3868,2.386,2.3872,2.3879,2.3853,2.385,2.3827,2.3842,2.3896,2.3813,2.3812,2.3828,2.3942,2.3962,2.3972,2.3877,2.3879,2.388,2.3943,0,2.3962,2.3985,2.3955,2.3985,2.3992,2.395,2.3963,2.3953,2.3937,2.394,2.3923,2.3927,2.3894,2.3892,2.3905,2.3886,2.3918,2.3882,2.3888,2.3888,2.3891,2.3982,2.4003,2.4063,2.395,2.3952,2.3953,0,2.4039,2.4034,2.4065,2.4043,2.4045,2.4057,2.4051,2.4056,2.4043,2.403,2.4027,2.3999,2.4013,2.3977,2.3995,2.3971,2.3972,2.3964,2.3966,2.3964,2.3923,2.3982,2.4081,2.409,2.3965,2.3964,2.3963,0,2.4114,2.4115,2.4133,2.4129,2.4104,2.4114,2.4104,2.409,2.409,2.4086,2.4085,2.4083,2.4082,2.4081,2.4054,2.403,2.4076,2.4037,2.4066,2.4066,2.4076,2.4076,2.4176,2.4079,2.4079,2.4079,2.4078,0,2.4187,2.4207,2.4166,2.4178,2.4199,2.4165,2.4188,2.4174,2.4162,2.417,2.4135,2.4143,2.4107,2.4112,2.4092,2.411,2.411,2.41,2.4094,2.4103,2.4104,2.4102,2.4097,2.4081,2.408,2.408,2.408,0,2.4273,2.4247,2.4264,2.4239,2.4233,2.425,2.4229,2.4239,2.4221,2.4232,2.4232,2.4204,2.4208,2.4181,2.4181,2.4166,2.4195,2.4182,2.4199,2.4194,2.4224,2.4221,2.4326,2.4337,2.4234,2.4235,2.4236,0,2.4321,2.4336,2.4312,2.4315,2.4307,2.4312,2.4311,2.428,2.4281,2.4268,2.4279,2.4281,2.4279,2.4288,2.4268,2.4267,2.4254,2.4291,2.4253,2.4262,2.4253,2.4252,2.4253,2.4298,2.4299,2.43,2.4301,0,2.4409,2.4395,2.4396,2.4392,2.4392,2.4388,2.4381,2.4386,2.4351,2.4355,2.4358,2.4357,2.4357,2.4358,2.4354,2.4344,2.4317,2.4313,2.4319,2.4328,2.4336,2.4331,2.4219,2.4311,2.431,2.4309,2.4308,2.4308,2.4477,2.4487,2.4473,2.4475,2.4466,2.4461,2.4469,2.4452,2.4454,2.445,2.4432,2.4439,2.4427,2.4418,2.4411,2.4416,2.4399,2.4408,2.441,2.4413,2.4418,2.4337,2.4416,2.4415,2.4415,2.4415,2.4415,0,2.4561,2.455,2.4552,2.4544,2.4546,2.452,2.4512,2.4515,2.4521,2.4512,2.4512,2.4516,2.4518,2.4498,2.4497,2.4506,2.4493,2.4506,2.4505,2.4503,2.4434,2.4428,2.4516,2.4516,2.4516,2.4516,2.4516,2.4516,2.4606,2.4622,2.4607,2.462,2.4609,2.4615,2.4612,2.4607,2.46,2.4606,2.4607,2.4594,2.4581,2.4579,2.458,2.4574,2.4575,2.4592,2.4582,2.4518,2.4508,2.4498,2.4493,2.4593,2.4593,2.465,2.4651,2.4651]},{"header":{"parameterUnit":"m.s-1","parameterCategory":1,"la1":30.2991,"la2":30.254,"lo1":-89.0895,"lo2":-89.0444,"dy":0.0017,"dx":0.0017,"nx":28,"ny":28,"refTime":"2024-02-26T03:00:00:Z","depth":0,"parameterNumber":3,"parameterNumberName":"V-component_of_WINDS"},"data":[0,0,0,0,0,0,0,0,0,0,0,0,0,0,0,0,0,0,0,0,0,0,0,0,0,0,0,0,0,0,0,0,0,0,0,0,0,0,0,0,0,0,0,0,0,0,0,0,0,0,0,0,0,0,0,0,0,0,4.278,4.2779,0,4.2688,4.2687,4.2686,4.263,4.263,4.2629,4.2629,4.2536,4.2534,4.2532,0,0,0,0,0,0,0,0,0,0,0,0,0,4.2907,4.2905,4.278,4.2779,4.2778,4.2688,4.2687,4.2685,4.263,4.263,4.2629,4.2629,4.2537,4.2534,4.2531,0,0,0,0,0,0,0,0,0,0,0,0,0,4.2837,4.2904,4.278,4.2739,4.2735,4.2688,4.2687,4.2685,4.263,4.263,4.2629,4.2629,4.2538,4.2534,4.2531,4.2519,0,0,4.2521,4.2519,0,0,0,0,0,0,0,0,4.2841,4.2833,4.2746,4.2742,4.2737,4.267,4.2697,4.2629,4.263,4.267,4.2629,4.2629,4.2581,4.2574,4.2558,4.2514,4.251,4.2521,4.2519,4.2517,4.2516,0,0,0,0,0,0,0,4.2846,4.2836,4.2743,4.2745,4.2739,4.2725,4.2715,4.2684,4.2629,4.2666,4.2662,4.2652,4.2578,4.2561,4.2555,4.2509,4.2521,4.2518,4.2516,4.2514,4.245,4.2451,0,0,0,0,0,0,4.2858,4.2841,4.2746,4.2741,4.2789,4.2723,4.2712,4.2692,4.2629,4.2619,4.2652,4.265,4.2567,4.2559,4.2552,4.2533,4.2517,4.2514,4.2512,4.245,4.2451,4.2451,0,0,0,0,0,0,4.286,4.285,4.275,4.2789,4.2776,4.2721,4.27,4.269,4.2673,4.2618,4.2608,4.2645,4.2566,4.2556,4.2527,4.2529,4.2513,4.2509,4.245,4.245,4.2451,4.2496,0,0,0,0,0,0,4.2864,4.2851,4.2846,4.279,4.2774,4.2727,4.27,4.2689,4.2667,4.2663,4.2609,4.26,4.2565,4.2532,4.2524,4.2524,4.2507,4.2449,4.245,4.2451,4.2494,4.2498,4.2501,0,0,0,0,0,4.2869,4.2863,4.2846,4.2835,4.2766,4.2728,4.2718,4.2679,4.2668,4.2662,4.2627,4.2601,4.253,4.253,4.252,4.2519,4.2449,4.245,4.245,4.2493,4.2497,4.2501,0,0,0,0,0,0,4.2921,4.2855,4.2835,4.2811,4.2775,4.2718,4.271,4.2685,4.2652,4.265,4.2602,4.259,4.2566,4.2539,4.254,4.2504,4.2487,4.2485,4.2522,4.2526,4.253,4.2537,4.2504,0,0,0,0,0,4.293,4.2904,4.2847,4.2831,4.2814,4.2765,4.2747,4.2719,4.268,4.2665,4.2628,4.2592,4.2561,4.2542,4.2511,4.249,4.2477,4.2484,4.2488,4.2491,4.2491,4.2478,4.248,4.2453,4.2453,4.2453,0,0,4.2947,4.2908,4.2894,4.284,4.2809,4.2784,4.2753,4.2727,4.2707,4.2661,4.2632,4.2603,4.2559,4.2534,4.2521,4.2511,4.2495,4.2492,4.2495,4.2493,4.2479,4.2482,4.2484,4.2454,4.2453,4.2453,0,0,4.2966,4.2934,4.2917,4.2886,4.284,4.2807,4.2803,4.2749,4.2728,4.2697,4.2662,4.2638,4.2586,4.2556,4.2535,4.2541,4.2516,4.2532,4.2551,4.2539,4.2541,4.2543,4.2546,4.2548,4.2532,4.2532,4.2532,0,4.2994,4.2954,4.2911,4.2887,4.2864,4.282,4.2802,4.2775,4.2721,4.2706,4.2695,4.2629,4.2596,4.2564,4.2565,4.2549,4.2543,4.2539,4.2544,4.2546,4.2547,4.2549,4.255,4.2534,4.2534,4.2534,4.2533,0,4.2991,4.2964,4.2955,4.2904,4.288,4.2859,4.2812,4.2793,4.2767,4.2735,4.2704,4.2663,4.2623,4.2613,4.2588,4.2577,4.2572,4.2553,4.2536,4.2552,4.2554,4.2554,4.2537,4.2536,4.2536,4.2535,0,0,4.3043,4.2966,4.2964,4.294,4.2885,4.2862,4.2839,4.2799,4.2784,4.2747,4.2727,4.2683,4.2666,4.2641,4.2611,4.2601,4.2609,4.2583,4.2582,4.259,4.2595,4.261,4.2612,4.2592,4.2591,4.2591,4.2599,0,4.3055,4.3011,4.2971,4.2942,4.2916,4.2873,4.2853,4.2817,4.2786,4.2759,4.2726,4.2696,4.2674,4.2659,4.2646,4.2611,4.2609,4.2609,4.2573,4.2572,4.2587,4.2612,4.2629,4.2638,4.2599,4.2599,4.2599,0,4.3063,4.3029,4.2997,4.2944,4.2931,4.2914,4.2873,4.2848,4.2806,4.2785,4.2756,4.2725,4.2698,4.2682,4.2645,4.2646,4.2629,4.2609,4.2608,4.2604,4.2588,4.2611,4.2639,4.2642,4.2599,4.2599,4.2599,0,4.3106,4.305,4.3024,4.3005,4.2941,4.293,4.2903,4.2861,4.2839,4.2803,4.2789,4.2751,4.2731,4.2702,4.2661,4.2653,4.2629,4.2609,4.2611,4.2612,4.2609,4.2611,4.2637,4.2596,4.2596,4.2596,4.2596,0,4.3124,4.3107,4.3042,4.3027,4.3006,4.2959,4.2939,4.2908,4.287,4.2848,4.2808,4.2788,4.2734,4.2708,4.2676,4.265,4.2641,4.2623,4.2615,4.2628,4.263,4.2617,4.2616,4.2596,4.2596,4.2596,4.2596,0,4.3169,4.3125,4.3094,4.3036,4.302,4.3008,4.2958,4.2941,4.2907,4.2879,4.287,4.2817,4.2784,4.274,4.2693,4.2671,4.265,4.2636,4.2664,4.266,4.2665,4.2665,4.2685,4.2685,4.2643,4.2643,4.2644,0,4.3185,4.317,4.311,4.3092,4.3066,4.3037,4.3015,4.2967,4.2945,4.2895,4.2884,4.2847,4.2815,4.2764,4.2722,4.2685,4.2672,4.2681,4.2666,4.2679,4.2673,4.2675,4.2674,4.2685,4.2686,4.2687,4.2687,0,4.3218,4.3196,4.3165,4.3126,4.31,4.3066,4.3032,4.3019,4.2964,4.2941,4.2906,4.2881,4.2832,4.2796,4.2754,4.2726,4.2698,4.2692,4.269,4.2704,4.2721,4.2713,4.2676,4.2692,4.2691,4.2691,4.2691,4.2691,4.3249,4.3234,4.319,4.3156,4.3124,4.3092,4.3073,4.3036,4.3006,4.2962,4.2936,4.2902,4.2858,4.2799,4.2772,4.2745,4.2734,4.2732,4.2732,4.2732,4.2737,4.2724,4.2737,4.2737,4.2736,4.2736,4.2736,0,4.3281,4.325,4.3219,4.3171,4.3144,4.3118,4.3078,4.3057,4.3028,4.299,4.2958,4.2918,4.2882,4.2837,4.2798,4.2785,4.2771,4.2777,4.2778,4.2772,4.2748,4.2754,4.2789,4.2789,4.2789,4.2789,4.2789,4.2789,4.3295,4.3269,4.3241,4.3199,4.3167,4.3133,4.3112,4.3082,4.3051,4.3008,4.2977,4.2947,4.2906,4.2864,4.283,4.2818,4.2806,4.2816,4.28,4.2779,4.2774,4.277,4.2775,4.2814,4.2814,4.2826,4.2827,4.2827]}]]